Tracking 31027 objects as of 19-Jul-2025
HD Live streaming from Space Station
objects crossing your sky now

SPACEMOBILE-002

Track SPACEMOBILE-002 now!
10-day predictions


NORAD ID: 61048
Int'l Code: 2024-163D
Perigee: 504.7 km
Apogee: 518.7 km
Inclination: 53.0 °
Period: 94.7 minutes
Semi major axis: 6882 km
RCS: Unknown
Launch date: September 12, 2024
Source: United States (US)
Launch site: AIR FORCE EASTERN TEST RANGE (AFETR)
Your satellite tracking list
IRIDIUM 106
Track 1 satellite(s)




NASA's NSSDC Master Catalog

Two Line Element Set (TLE):
1 61048U 24163D   25199.55449831  .00002022  00000-0  10627-3 0  9995
2 61048  52.9724  43.5243 0010162 194.2651 165.8058 15.20431190 46996
Source of the keplerian elements: AFSPC